Regional Weather Roundup
Issued by NWS Jackson, KY

Home | Current Version | Previous Version | Graphics & Text | Print | Product List | Glossary On
Versions: 1 2 3 4 5 6 7 8 9 10 11 12 13 14 15 16 17 18 19 20 21 22 23 24 25 26 27 28 29 30 31 32 33 34 35 36 37 38 39 40 41 42 43 44 45 46 47 48 49 50
000
ASUS43 KJKL 241810
RWRJKL

EAST KENTUCKY HOURLY WEATHER ROUNDUP
NATIONAL WEATHER SERVICE JACKSON KY
200 PM EDT FRI MAR 24 2017

NOTE: "FAIR" INDICATES FEW OR NO CLOUDS BELOW 12,000 FEET WITH
NO SIGNIFICANT WEATHER AND/OR OBSTRUCTIONS TO VISIBILITY.

* THESE REPORTS ARE NOT UNDER NWS QUALITY CONTROL AND MAY NOT
  REPORT WEATHER SUCH AS PRECIPITATION AND FOG.

KYZ079-080-083-085-087-088-110-112-115-119-120-241900
...EASTERN KENTUCKY...

CITY           SKY/WX    TMP DP  RH WIND       PRES   REMARKS
JACKSON        CLOUDY    72  49  44 VRB3      30.29F
6HR MIN TEMP:  53; 6HR MAX TEMP:  74;

LONDON         CLOUDY    70  46  42 SW14G22   30.30F
6HR MIN TEMP:  56; 6HR MAX TEMP:  71;

SOMERSET*      CLOUDY    70  46  43 SW12      30.30F
MONTICELLO*    CLOUDY    72  52  49 S8G29     30.31F
6HR MIN TEMP:  56; 6HR MAX TEMP:  72;

WILLIAMSBURG*  CLOUDY    73  48  40 W15       30.31S
MIDDLESBORO*   MOSUNNY   70  48  44 SW8       30.34F
6HR MIN TEMP:  47; 6HR MAX TEMP:  70;

HARLAN APT*    PTCLDY    72  43  35 S7        30.34F
PIKE CO APT*   CLOUDY    70  49  47 SW3       30.30F
BIG SANDY APT* CLOUDY    72  49  44 S8        30.29F
6HR MIN TEMP:  54; 6HR MAX TEMP:  72;

MOREHEAD APT*  CLOUDY    68  50  52 SW12G18   30.27F
ASHLAND*       PTSUNNY   59  52  77 SW14G21   30.22F
$$

KYZ035-036-041-042-044-050-067-078-099-241900
...CENTRAL KENTUCKY...

CITY           SKY/WX    TMP DP  RH WIND       PRES   REMARKS
MT STERLING*   PTSUNNY   72  52  49 SW14G22   30.26F
FLEMING/MASON* CLOUDY    70  53  54 SW15G21   30.24F
DANVILLE*      MOSUNNY   72  52  49 S21G26    30.26F
LEXINGTON      SUNNY     74  51  44 S23G30    30.23F
6HR MIN TEMP:  54; 6HR MAX TEMP:  75;

FRANKFORT      SUNNY     75  50  41 S22G28    30.19F
6HR MIN TEMP:  55; 6HR MAX TEMP:  76;

LOUISVILLE     MOSUNNY   78  51  38 S20G25    30.17F
6HR MIN TEMP:  58; 6HR MAX TEMP:  78;

LEBANON*         N/A     72  52  49 S24       30.24F
GLASGOW*       MOSUNNY   73  52  48 S14G22    30.24F
BOWLING GREEN  SUNNY     75  54  47 S18G28    30.23F
6HR MIN TEMP:  59; 6HR MAX TEMP:  76;

$$

KYZ091>093-OHZ055-061-077-WVZ005-015-034-035-042-241900
...SOUTHERN OHIO/WEST VIRGINIA...

CITY           SKY/WX    TMP DP  RH WIND       PRES   REMARKS
COVINGTON      MOSUNNY   73  53  49 S16G23    30.17F
COLUMBUS       MOSUNNY   70  51  51 SW18G26   30.15F
DAYTON         PTSUNNY   70  52  52 SW23G30   30.14F
WILMINGTON     SUNNY     68  52  56 SW21G28   30.17F
HUNTINGTON     CLOUDY    73  49  42 SW12      30.24F
CHARLESTON     PTSUNNY   73  47  39 W8        30.24F
PINEVILLE*     PTSUNNY   73  40  29 MISG      30.35F
BECKLEY        PTSUNNY   68  46  45 SW13G18   30.31F
BLUEFIELD      PTSUNNY   64  42  44 SW9G18    30.35F
LOGAN CO APT*  MOCLDY    70  45  40 CALM      30.29F
$$

VAZ002-007-008-TNZ017-027-036-066-071-241900
...SOUTHWEST VIRGINIA/EAST TENNESSEE...

CITY           SKY/WX    TMP DP  RH WIND       PRES   REMARKS
WISE*          CLOUDY    64  43  45 W14       30.37S
JONESVILLE*      N/A     68  45  42 W9        30.37F
ABINGDON*      CLOUDY    69  43  39 W6        30.36F
BRISTOL        PTSUNNY   70  46  42 W8        30.35F
MORRISTOWN*    CLEAR     68  45  42 VRB5      30.34F
SEVIERVILLE*   PTCLDY    70  43  37 CALM      30.33F
KNOXVILLE      PTSUNNY   71  47  42 SW8       30.34F
LAFOLLETTE*    MOCLDY    68  46  45 S14G20    30.36F
OAK RIDGE      MOSUNNY   70  45  40 S10       30.35F
CROSSVILLE     SUNNY     65  47  52 S13G22    30.35F
NASHVILLE      PTSUNNY   74  53  48 S18G25    30.25F
$$

...KEY TO REMARKS...
VSB - VISIBILITY IN MILES
WCI - WIND CHILL INDEX
HX  - HEAT INDEX

$$



USA.gov is the U.S. government's official web portal to all federal, state and local government web resources and services.